Location: Newark
(35.6799°N, 139.7636°E)
Time: 20:30:21
(UTC+00:00)

Vanguard 1 Rocket - Pass Details

Date: 18 December 2019
Orbit: 651 x 4226 km, 34.3° (Epoch: 28 January)

Event Time Altitude Azimuth Distance (km) Brightness Sun altitude
Rises 09:36:57 0° 243° (WSW) 8,458 13.6 -25.0°
Reaches altitude 10° 09:42:57 10° 242° (WSW) 7,406 12.9 -26.2°
Maximum altitude 10:07:54 75° 163° (SSE) 3,286 9.9 -31.2°
Enters shadow 10:14:00 49° 94° (E) 3,299 9.7 -32.5°
